Lid_Strength_Index
2 3 3 3 3 3 3 3 3 3 4 4 4 4 3 3 4 12 12 8 5 2 2 8 8 9 9 11 10 11 17 20 18 17 16 13 14 11 9 9 8 9 10 8 6
3 3 3 3 3 3 3 3 3 3 3 4 4 4 3 4 9 16 7 4 3 2 7 11 12 10 13 12 12 15 18 18 15 14 15 13 12 11 10 10 11 10 8 7 6
4 3 3 3 3 3 3 3 3 3 3 4 4 4 3 6 13 16 6 5 4 4 8 9 10 10 13 13 13 14 17 14 13 12 12 11 11 9 11 13 12 12 10 9 7
5 5 4 3 3 4 3 3 3 3 3 4 4 4 3 10 18 15 6 5 4 7 10 10 11 14 14 15 13 16 13 13 12 11 12 11 9 10 10 11 10 10 9 9 8
5 5 5 4 3 4 4 3 3 3 4 4 4 3 8 14 17 12 7 8 10 9 10 11 13 14 16 15 14 14 14 12 12 11 11 10 10 9 11 10 9 9 10 9 9
4 5 5 5 4 4 4 4 4 3 4 4 4 3 11 16 13 12 11 11 10 10 11 11 12 12 14 14 15 14 13 13 12 11 10 11 11 10 10 9 10 10 11 10 10
4 4 5 5 5 5 4 4 4 4 3 4 4 8 12 17 14 13 11 11 10 10 11 10 11 12 14 14 12 13 15 14 13 12 12 10 12 11 10 10 11 11 12 11 10
4 4 4 5 6 5 5 5 4 4 4 4 5 10 15 13 13 13 11 11 10 9 9 9 10 12 13 13 14 15 16 20 14 12 11 12 16 12 10 11 12 12 12 12 11
3 3 4 5 6 5 5 6 5 6 5 5 10 12 17 10 14 13 12 12 11 10 9 8 10 13 14 17 19 19 22 19 17 12 12 13 15 10 10 11 13 13 13 13 13
3 3 3 5 6 6 6 6 6 7 8 10 12 15 15 16 14 13 13 12 12 12 12 12 15 18 18 19 25 22 22 19 19 15 13 13 13 11 11 12 13 13 13 14 14
3 3 4 5 6 6 8 10 12 13 13 16 16 15 15 14 14 15 13 13 13 13 17 15 19 22 19 18 17 18 19 19 18 14 15 13 13 12 12 13 14 14 15 14 14
3 4 5 6 6 6 8 11 12 12 16 14 14 15 14 15 17 15 12 15 15 18 17 17 22 18 16 16 17 18 19 20 17 15 15 13 14 13 12 14 13 14 15 15 14
3 4 6 6 6 8 10 11 9 9 15 15 14 15 16 15 17 17 14 15 17 18 19 21 19 15 16 17 19 19 20 20 20 16 14 14 16 17 12 13 13 13 14 14 15
4 6 6 6 9 10 11 10 9 9 15 16 17 16 15 15 17 14 13 16 16 19 18 19 17 17 18 18 18 20 16 17 18 19 23 14 22 17 15 16 15 15 15 15 15
5 7 7 7 11 12 11 9 9 9 20 17 17 14 16 17 17 15 13 15 19 18 19 21 19 19 19 19 17 19 16 17 17 20 17 17 22 21 17 18 18 16 16 15 15
5 7 8 9 10 11 9 8 9 14 20 18 16 17 18 17 17 15 15 15 15 18 18 19 16 17 18 16 16 16 17 16 17 20 25 21 21 21 23 21 18 17 16 16 16
6 6 9 9 11 9 8 9 14 18 16 18 18 17 18 19 18 18 20 21 24 22 24 19 19 17 16 19 17 18 23 32 29 29 28 20 20 20 19 18 20 19 17 16 16
6 7 8 9 9 8 9 12 17 14 18 17 17 18 19 19 20 18 20 22 20 21 24 23 24 19 17 19 21 20 22 30 33 31 26 18 25 21 16 16 18 16 17 16 17
7 8 9 9 8 8 11 15 15 15 16 18 18 20 20 20 20 20 21 21 21 21 23 26 22 18 17 16 19 21 26 20 28 27 25 21 19 16 14 17 17 17 18 18 17
8 9 11 9 9 9 13 14 15 16 17 17 19 19 21 21 21 21 22 20 21 19 19 23 24 19 17 16 17 19 19 26 27 33 34 24 23 23 19 19 18 18 19 18 18
8 11 11 9 9 11 15 14 17 16 15 17 18 18 20 20 20 21 22 20 19 19 19 21 24 21 19 22 22 22 26 22 23 25 32 29 25 22 23 23 22 20 19 19 19
8 13 10 10 14 15 15 17 16 17 16 16 18 18 19 20 20 21 22 21 17 18 22 20 25 27 24 19 18 20 21 22 28 30 29 27 24 17 20 22 24 21 19 19 19
12 14 10 11 15 16 18 18 16 18 17 18 19 18 18 20 21 21 21 18 17 19 22 21 26 29 28 24 20 21 21 21 24 29 32 30 25 17 19 21 21 24 20 19 20
11 16 15 13 14 15 18 18 19 17 17 17 18 18 20 21 20 21 21 19 18 18 16 18 27 28 27 27 25 28 25 21 24 29 32 27 25 20 19 20 20 22 22 20 20
10 14 13 17 16 15 15 16 19 20 17 17 19 19 19 22 22 22 21 20 18 17 20 22 27 28 23 21 21 22 27 26 29 25 28 28 28 23 21 22 21 25 23 19 19
12 14 13 15 14 15 14 17 18 19 18 19 19 19 19 21 20 22 21 21 21 20 23 23 25 25 27 20 21 22 21 21 23 21 22 23 22 19 19 19 20 24 24 22 20
11 10 11 14 15 15 15 16 16 17 17 17 17 19 20 20 18 18 18 19 19 22 25 26 26 27 28 23 28 27 27 24 23 24 23 24 22 19 19 17 20 22 25 25 22